Regional Weather Roundup
Issued by NWS

Home | Current Version | Previous Version | Graphics & Text | Print | Product List | Glossary On
Versions: 1 2 3 4 5 6 7 8 9 10 11 12 13 14 15 16 17 18 19 20 21 22 23 24 25 26 27 28 29 30 31 32 33 34 35 36 37 38 39 40 41 42 43 44 45 46 47 48 49 50
000
ASUS43 KOAX 231702
RWRNE

WEATHER ROUNDUP FOR NEBRASKA
NATIONAL WEATHER SERVICE OMAHA NE
1200 PM CDT THU MAR 23 2017

NOTES: SATELLITE DATA IS BEING USED TO AUGMENT CLOUD COVER ABOVE
       12000 FEET.
       "FAIR" INDICATES FEW OR NO CLOUDS BELOW 12,000 FEET WITH NO
       SIGNIFICANT WEATHER AND/OR OBSTRUCTIONS TO VISIBILITY.

  * THESE STATIONS DO NOT REPORT WEATHER SUCH AS RAIN...SNOW OR FOG.

NEZ001>004-019>022-054>056-231800-
NEBRASKA PANHANDLE

CITY           SKY/WX    TMP DP  RH WIND       PRES   REMARKS
SCOTTSBLUFF    SUNNY     54  38  54 CALM      29.65F
ALLIANCE       SUNNY     49  39  68 S8        29.66F
CHADRON        SUNNY     59  41  51 N9        29.63F
KIMBALL        SUNNY     65  41  42 E9G17     29.67S
SIDNEY         CLOUDY    56  40  55 CALM      29.67F
$$

NEZ057>060-069>072-079>082-231800-
SOUTHWEST NEBRASKA

CITY           SKY/WX    TMP DP  RH WIND       PRES   REMARKS
NORTH PLATTE   CLOUDY    53  49  86 SE10      29.68F
IMPERIAL       SUNNY     62  49  62 S6        29.66F
LEXINGTON      FOG       52  51  96 SE15      29.71F VSB 3/4
MCCOOK         MOSUNNY   69  55  60 S20G29    29.67F
OGALLALA       SUNNY     62  47  59 SW3       29.66F
$$

NEZ005>010-023>029-035>040-094-231800-
NORTH CENTRAL NEBRASKA

CITY           SKY/WX    TMP DP  RH WIND       PRES   REMARKS
VALENTINE      CLOUDY    50  43  77 S17       29.67F
AINSWORTH      CLOUDY    48  46  93 S16       29.69F
BROKEN BOW     LGT RAIN  51  32  48 S13G22    29.71F
O`NEILL        CLOUDY    49  47  93 S16       29.73F FOG
ORD            FOG       50  47  89 S10       29.74F VSB 1
THEDFORD       CLOUDY    52  48  86 S16G22    29.68F
$$

NEZ041-046>049-061>064-073>077-083>087-231800-
SOUTH CENTRAL NEBRASKA

CITY           SKY/WX    TMP DP  RH WIND       PRES   REMARKS
GRAND ISLAND   CLOUDY    53  51  93 S20G26    29.77F FOG
AURORA         CLOUDY    55  49  80 S23G30    29.78F
HASTINGS       CLOUDY    54  50  86 S17G24    29.77F FOG
HEBRON         CLOUDY    58  50  74 S14G25    29.81F
HOLDREGE       FOG       52  51  97 S16G24    29.72F VSB 1
KEARNEY *      CLOUDY    52  48  87 S18G25    29.74F
YORK           CLOUDY    55  48  76 S21G29    29.80F
$$

NEZ011>018-030>034-042>045-231800-
NORTHEAST NEBRASKA

CITY           SKY/WX    TMP DP  RH WIND       PRES   REMARKS
NORFOLK        CLOUDY    53  43  68 SE20G25   29.79F
ALBION         CLOUDY    53  46  77 S18G24    29.77F
BLAIR          CLOUDY    55  36  49 SE24      29.85F
FREMONT        CLOUDY    56  37  50 S17G31    29.85F
TEKAMAH        CLOUDY    55  36  48 SE21      29.86F
WAYNE          CLOUDY    53  41  63 S18       29.82F
$$

NEZ050>053-065>068-078-088>093-231800-
SOUTHEAST NEBRASKA

CITY           SKY/WX    TMP DP  RH WIND       PRES   REMARKS
LINCOLN        CLOUDY    60  43  53 SE21      29.84F
OMAHA EPPLEY   CLOUDY    56  35  45 S25       29.89F
BEATRICE       CLOUDY    63  50  61 S17G28    29.83F
FALLS CITY     SUNNY     67  46  47 S22G30    29.89F
NEBRASKA CITY  SUNNY     63  34  34 S23G30    29.88F
PLATTSMOUTH    MOSUNNY   59  32  35 SE20G30   29.89F
$$

NEZ044-045-051>053-067-231800-
OMAHA AREA

CITY           SKY/WX    TMP DP  RH WIND       PRES   REMARKS
OMAHA EPPLEY   CLOUDY    56  35  45 S25       29.89F
BLAIR          CLOUDY    55  36  49 SE24      29.85F
FREMONT        CLOUDY    56  37  50 S17G31    29.85F
MILLARD        CLOUDY    57  38  48 SE22      29.87F
OFFUTT AFB     CLOUDY    58  35  42 SE17      29.89F
PLATTSMOUTH    MOSUNNY   59  32  35 SE20G30   29.89F
WAHOO          CLOUDY    58  37  47 S24G30    29.85F
$$



USA.gov is the U.S. government's official web portal to all federal, state and local government web resources and services.